Location: Mapua
(41.2500°S, 173.1000°E)
Time: 23:32:57
(UTC+12:00)

ISS - Visible Passes

Search period start: 21 September 2018 00:00
Search period end: 01 October 2018 01:00
Orbit: 403 x 408 km, 51.6° (Epoch: 21 September)

Date Brightness Start Highest point End Pass type
(mag) Time Alt. Az. Time Alt. Az. Time Alt. Az.
27 Sep -1.3 05:19:42 10° N 05:22:08 19° NE 05:24:36 10° E visible
28 Sep -0.7 04:30:13 10° NE 04:30:28 10° NE 04:30:44 10° ENE visible
29 Sep -2.9 05:11:25 10° NNW 05:14:36 46° NE 05:17:49 10° ESE visible
30 Sep -2.0 05:21:50 21° NNE 05:22:48 24° NE 05:25:34 10° ESE visible
